Regional Weather Roundup
Issued by NWS Sioux Falls, SD

Home | Current Version | Previous Version | Graphics & Text | Print | Product List | Glossary On
Versions: 1 2 3 4 5 6 7 8 9 10 11 12 13 14 15 16 17 18 19 20 21 22 23 24 25 26 27 28 29 30 31 32 33 34 35 36 37 38 39 40 41 42 43 44 45 46 47 48 49 50
000
ASUS43 KFSD 270310
RWRFSD

WEATHER ROUNDUP FOR SE SOUTH DAKOTA/SW MINNESOTA/NW IOWA
NATIONAL WEATHER SERVICE SIOUX FALLS SD
1000 PM CDT THU MAR 26 2015

NOTE: "FAIR" INDICATES FEW OR NO CLOUDS BELOW 12,000 FEET WITH NO
SIGNIFICANT WEATHER AND OR OBSTRUCTIONS TO VISIBILITY.


SDZ038>040-050-052>070-270400-
SOUTHEAST SOUTH DAKOTA

CITY           SKY/WX    TMP DP  RH WIND       PRES   REMARKS
CHAMBERLAIN    CLOUDY    33  26  73 NE3       30.25R
HURON          CLEAR     24  13  62 NE6       30.26R WCI  17
MADISON        FAIR      21  18  86 N10       30.23R WCI  10
MITCHELL       CLEAR     28  17  63 NE10      30.26R WCI  19
SIOUX FALLS    CLEAR     25  17  72 N7        30.23R WCI  17
WINNER         MOCLDY    34  29  82 W3        30.24R
YANKTON        CLOUDY    34  21  60 N8        30.24R WCI  27
$$

MNZ071-072-080-081-089-090-097-098-270400-
SOUTHWEST MINNESOTA

CITY           SKY/WX    TMP DP  RH WIND       PRES   REMARKS
FAIRMONT       CLOUDY    28  10  47 NW12      30.18R WCI  18
JACKSON        CLEAR     27  19  74 NW9       30.20R WCI  17
LUVERNE        CLEAR     30  19  64 N6        30.23R WCI  24
MARSHALL       CLEAR     25  14  63 N7        30.24R WCI  17
MONTEVIDEO     CLEAR     27  18  69 N12       30.25R WCI  16
PIPESTONE      CLEAR     27  16  63 N6        30.21R WCI  20
REDWOOD FALLS  CLEAR     27  17  66 NW8       30.22R WCI  19
TRACY          CLEAR     25  19  76 N6        30.22R WCI  18
WINDOM         CLEAR     21  18  86 NW7       30.20R WCI  13
WORTHINGTON    CLEAR     21  12  68 N8        30.21R WCI  12
$$

IAZ001>003-012>014-020>022-031-032-NEZ013-014-SDZ071-270400-
NORTHWEST IOWA

CITY           SKY/WX    TMP DP  RH WIND       PRES   REMARKS
CHEROKEE       PTCLDY    30  21  67 N9        30.21R WCI  22
DENISON        MOCLDY    34  25  69 N8G15     30.17R WCI  27
ESTHERVILLE    CLOUDY    28  17  63 N17       30.19R WCI  16
LE MARS        CLOUDY    32  21  64 N12       30.22R WCI  23
ORANGE CITY    PTCLDY    30  19  64 NE7       30.21R WCI  23
SHELDON        CLEAR     27  19  74 N12       30.20R WCI  16
SIOUX CITY     MOCLDY    36  25  64 N9        30.21R
SPENCER        CLEAR     28  18  66 N14       30.20R WCI  17
STORM LAKE     CLOUDY    30  21  69 N13       30.19R WCI  20
$$

ABBREVIATIONS USED IN REMARKS
   TC - TEMPERATURE IN CELSIUS
  WCI - WIND CHILL INDEX
   HX - HEAT INDEX
  VSB - VISIBILITY




USA.gov is the U.S. government's official web portal to all federal, state and local government web resources and services.